Weather History for Grand Forks, ND

Change the Weather History Date:

Thursday, April 25, 2013

  Actual Average Record
Temperature  
Mean Temperature 35 °F 47 °F  
Max Temperature 44 °F 60 °F 81 °F (1977)
Min Temperature 26 °F 34 °F 18 °F (1958)
Degree Days  
Heating Degree Days 30 18  
Month to date heating degree days 901 610  
Since 1 July heating degree days 9468 8995  
Cooling Degree Days 0 0  
Month to date cooling degree days 0 0  
Year to date cooling degree days 0 0  
Moisture  
Dew Point 28 °F    
Average Humidity 74    
Maximum Humidity 85    
Minimum Humidity 62    
Precipitation  
Precipitation 0.00 in 0.05 in 0.78 in (1986)
Month to date precipitation 0.78 0.77  
Year to date precipitation 2.55 2.80  
Snow  
Snow 0.00 in 0.10 in 3.00 in (1960)
Month to date snowfall 6.5 2.4  
Since 1 July snowfall 50.0 46.8  
Snow Depth 0.00 in    
Sea Level Pressure  
Sea Level Pressure 30.02 in    
Wind  
Wind Speed 12 mph (SSW)    
Max Wind Speed 26 mph    
Max Gust Speed 31 mph    
Visibility 10 miles    
Events      
T = Trace of Precipitation, MM = Missing Value Source: NWS Daily Summary

Daily Weather History Graph

Daily Weather History Graph

Search for Another Location

Airport:

Trip Planner

Search our weather history database for the weather conditions in past years. The results will help you decide how hot, cold, wet, or windy it might be!

Date:

Astronomy

Apr. 25, 2013 Rise Set
Actual Time 6:20 AM CDT 8:33 PM CDT
Civil Twilight 5:46 AM CDT 9:07 PM CDT
Nautical Twilight 5:04 AM CDT 9:50 PM CDT
Astronomical Twilight 4:17 AM CDT 10:38 PM CDT
Moon 8:50 PM CDT (4/25) 6:04 AM CDT (4/25)
Length of Visible Light 15h 21m
Length of Day
14h 13m
Full, 100% of the Moon is Illuminated
Apr 25
Full
Apr 25
Full
May 2
Last Quarter
May 9
New
May 17
First Quarter

Hourly Weather History & Observations

Time (CDT) Temp. Windchill Dew Point Humidity Pressure Visibility Wind Dir Wind Speed Gust Speed Precip Events Conditions
12:53 AM 30.0 °F 22.4 °F 26.1 °F 85% 30.03 in 10.0 mi WNW 8.1 mph - N/A   Clear
1:53 AM 28.9 °F 20.4 °F 25.0 °F 85% 30.04 in 10.0 mi WNW 9.2 mph - N/A   Clear
2:53 AM 28.0 °F 20.8 °F 24.1 °F 85% 30.05 in 10.0 mi West 6.9 mph - N/A   Clear
3:53 AM 28.0 °F 21.7 °F 24.1 °F 85% 30.05 in 10.0 mi WNW 5.8 mph - N/A   Clear
4:53 AM 27.0 °F 19.5 °F 23.0 °F 85% 30.06 in 10.0 mi West 6.9 mph - N/A   Clear
5:53 AM 27.0 °F 21.6 °F 23.0 °F 85% 30.06 in 10.0 mi West 4.6 mph - N/A   Clear
6:53 AM 26.1 °F 20.5 °F 21.9 °F 84% 30.07 in 10.0 mi WSW 4.6 mph - N/A   Clear
7:53 AM 27.0 °F 20.5 °F 21.0 °F 78% 30.09 in 10.0 mi WSW 5.8 mph - N/A   Clear
8:53 AM 30.0 °F 21.7 °F 24.1 °F 79% 30.10 in 10.0 mi WSW 9.2 mph - N/A   Clear
9:53 AM 32.0 °F 25.6 °F 23.0 °F 69% 30.09 in 10.0 mi SW 6.9 mph - N/A   Clear
10:53 AM 34.0 °F 26.6 °F 24.1 °F 67% 30.08 in 10.0 mi SSW 9.2 mph - N/A   Clear
11:53 AM 36.0 °F 27.5 °F 26.1 °F 67% 30.06 in 10.0 mi South 12.7 mph - N/A   Scattered Clouds
12:53 PM 37.9 °F 29.2 °F 28.9 °F 70% 30.05 in 10.0 mi South 15.0 mph - N/A   Scattered Clouds
1:53 PM 39.9 °F 30.8 °F 30.0 °F 68% 30.02 in 10.0 mi South 18.4 mph 24.2 mph N/A   Scattered Clouds
2:53 PM 42.1 °F 33.9 °F 30.9 °F 65% 30.01 in 10.0 mi South 17.3 mph 23.0 mph N/A   Scattered Clouds
3:53 PM 43.0 °F 35.1 °F 33.1 °F 68% 29.99 in 10.0 mi South 17.3 mph - N/A   Scattered Clouds
4:53 PM 43.0 °F 34.5 °F 32.0 °F 65% 29.98 in 10.0 mi SSE 19.6 mph - N/A   Mostly Cloudy
5:53 PM 42.1 °F 33.1 °F 30.0 °F 62% 29.97 in 10.0 mi South 20.7 mph 27.6 mph N/A   Overcast
6:53 PM 42.1 °F 33.6 °F 33.1 °F 70% 29.96 in 10.0 mi South 18.4 mph 24.2 mph N/A   Overcast
7:53 PM 43.0 °F 35.4 °F 34.0 °F 71% 29.94 in 10.0 mi SSE 16.1 mph - N/A   Mostly Cloudy
8:53 PM 41.0 °F 33.5 °F 35.1 °F 79% 29.92 in 10.0 mi SSE 13.8 mph - N/A   Mostly Cloudy
9:53 PM 39.0 °F 30.6 °F 33.1 °F 79% 29.93 in 10.0 mi SSE 15.0 mph - N/A   Mostly Cloudy
10:53 PM 37.9 °F 29.6 °F 30.9 °F 76% 29.92 in 10.0 mi SSE 13.8 mph - N/A   Mostly Cloudy
11:53 PM 37.0 °F 30.4 °F 30.9 °F 79% 29.92 in 10.0 mi South 9.2 mph - N/A   Clear